Location: Newark
(25.0000°N, 73.5000°E)
Time: 00:44:28
(UTC+00:00)

Tiros 1 despin weight - Pass Details

Date: 05 March 2021
Orbit: 593 x 641 km, 48.2° (Epoch: 15 April)

Event Time Altitude Azimuth Distance (km) Brightness Sun altitude
Rises 02:43:51 0° 287° (WNW) 2,935 ? 16.7°
Reaches altitude 10° 02:47:31 10° 258° (WSW) 2,022 ? 17.5°
Maximum altitude 02:49:26 12° 234° (SW) 1,862 ? 17.9°
Drops below altitude 10° 02:51:21 10° 209° (SSW) 2,014 ? 18.3°
Sets 02:55:00 0° 180° (S) 2,911 ? 19.1°
